SCP
0 0 0 0 0 0 0 0 0 0 0 0 0 0 0 0 0 0 0 0 0 0
0 0 0 0 0 0 0 0 0 0 0 0 0 0 0 0 0 0 0 0 0 0
0 0 0 0 0 0 0 0 0 0 0 0 0 0 0 0 0 0 0 0 0 0
0 0 0 0 0 0 0 0 0 0 0 0 0 0 0 0 0 0 0 0 0 0
0 0 0 0 0 0 0 0 0 0 0 0 0 0 0 0 0 0 0 0 0 0
0 0 0 0 0 0 0 0 0 0 0 0 0 0 0 0 0 -0 -0 0 0 0
0 0 0 0 0 0 0 0 0 0 0 0 0 0 0 -0 0 0 0 0 0 0
0 0 0 0 0 0 0 0 0 0 0 0 0 0 0 0 0 0 0 0 0 0
0 0 0 0 0 0 0 0 0 0 0 0 0 0 0 0 0 0 0 0 0 0
0 0 0 0 0 0 0 0 0 0 0 0 0 0 0 0 0 0 0 0 0 0
0 0 0 0 0 0 0 0 0 0 0 0 0 0 0 0 0 0 0 0 0 0
0 0 0 0 0 0 0 0 0 0 0 0 0 0 0 0 0 0 0 0 0 0
0 0 0 0 0 0 0 0 0 0 0 0 0 0 0 0 0 0 0 0 0 0
0 0 0 0 0 0 0 0 0 0 0 0 0 0 0 0 0 0 0 0 0 0
Wind_Speed_500mb
57 53 48 46 43 39 38 39 40 42 43 43 46 47 49 51 54 54 54 52 58 57
49 43 36 33 32 31 30 32 37 41 44 46 50 52 51 50 49 45 44 49 52 55
33 31 29 27 27 29 32 37 40 43 46 48 49 50 50 49 48 47 46 44 46 47
30 27 24 22 24 27 31 37 43 47 50 51 52 51 51 51 51 52 53 54 58 61
27 25 22 21 26 30 36 43 50 53 55 56 56 55 55 52 52 53 53 52 54 57
27 24 23 23 26 33 41 47 50 51 51 49 47 46 47 48 47 48 50 50 51 52
28 25 23 24 31 39 43 44 43 43 42 40 38 38 39 42 43 43 42 38 37 37
30 28 28 31 36 39 40 40 38 37 36 35 34 34 34 34 33 31 29 27 28 31
34 35 35 36 35 36 37 37 37 36 33 31 31 33 35 37 34 31 32 34 33 38
39 40 40 37 34 33 36 36 36 36 33 33 33 33 36 38 39 37 35 38 41 45
46 47 43 36 33 36 36 36 34 34 33 33 35 37 40 41 42 42 40 42 42 45
52 50 41 33 35 38 37 36 35 34 36 34 36 40 41 44 46 48 45 46 42 41
54 46 36 33 37 39 38 38 36 35 38 40 38 41 42 44 46 49 49 50 48 41
50 43 36 35 37 39 38 37 37 35 37 39 40 37 38 40 43 44 50 53 52 48
Wind_Direction_500mb
233 235 237 242 247 249 252 256 259 260 261 262 264 266 267 267 268 267 268 268 270 276
227 226 224 226 232 238 245 254 261 266 269 273 275 275 275 276 276 273 271 274 273 274
195 200 206 217 234 250 261 267 272 275 277 278 276 277 278 280 281 279 275 272 274 274
197 207 219 230 244 256 266 271 274 276 276 276 278 280 282 283 283 280 279 276 275 275
201 204 218 240 256 266 273 277 278 279 279 278 278 277 277 278 279 281 282 286 287 289
206 220 237 254 270 277 277 278 280 280 279 279 278 276 275 275 277 280 284 288 292 294
219 233 249 269 275 273 273 274 276 278 277 274 273 270 270 274 279 285 291 294 298 302
230 243 255 261 267 271 273 274 276 276 276 275 273 271 273 278 285 289 291 292 298 304
235 243 250 258 267 274 278 279 278 276 274 269 268 272 279 284 287 292 296 297 299 302
237 243 249 257 270 280 282 281 278 275 270 269 272 274 279 282 286 289 291 294 298 300
241 244 247 259 276 284 283 282 281 279 276 273 273 273 276 279 283 287 291 293 296 301
242 241 247 261 277 280 279 279 279 278 278 275 274 273 271 274 279 284 289 292 296 300
238 241 250 263 273 277 277 276 276 277 279 280 276 273 271 272 279 286 292 297 301 306
241 245 251 263 271 276 276 276 277 278 277 277 278 274 272 273 278 287 293 299 306 309
Wind_Speed_850mb
57 53 48 46 43 39 38 39 40 42 43 43 46 47 49 51 54 54 54 52 58 57
49 43 36 33 32 31 30 32 37 41 44 46 50 52 51 50 49 45 44 49 52 55
33 31 29 27 27 29 32 37 40 43 46 48 49 50 50 49 48 47 46 44 46 47
30 27 24 22 24 27 31 37 43 47 50 51 52 51 51 51 51 52 53 54 58 61
27 25 22 21 26 30 36 43 50 53 55 56 56 55 55 52 52 53 53 52 54 57
27 24 23 23 26 33 41 47 50 51 51 49 47 46 47 48 47 48 50 50 51 52
28 25 23 24 31 39 43 44 43 43 42 40 38 38 39 42 43 43 42 38 37 37
30 28 28 31 36 39 40 40 38 37 36 35 34 34 34 34 33 31 29 27 28 31
34 35 35 36 35 36 37 37 37 36 33 31 31 33 35 37 34 31 32 34 33 38
39 40 40 37 34 33 36 36 36 36 33 33 33 33 36 38 39 37 35 38 41 45
46 47 43 36 33 36 36 36 34 34 33 33 35 37 40 41 42 42 40 42 42 45
52 50 41 33 35 38 37 36 35 34 36 34 36 40 41 44 46 48 45 46 42 41
54 46 36 33 37 39 38 38 36 35 38 40 38 41 42 44 46 49 49 50 48 41
50 43 36 35 37 39 38 37 37 35 37 39 40 37 38 40 43 44 50 53 52 48
Wind_Direction_850mb
233 235 237 242 247 249 252 256 259 260 261 262 264 266 267 267 268 267 268 268 270 276
227 226 224 226 232 238 245 254 261 266 269 273 275 275 275 276 276 273 271 274 273 274
195 200 206 217 234 250 261 267 272 275 277 278 276 277 278 280 281 279 275 272 274 274
197 207 219 230 244 256 266 271 274 276 276 276 278 280 282 283 283 280 279 276 275 275
201 204 218 240 256 266 273 277 278 279 279 278 278 277 277 278 279 281 282 286 287 289
206 220 237 254 270 277 277 278 280 280 279 279 278 276 275 275 277 280 284 288 292 294
219 233 249 269 275 273 273 274 276 278 277 274 273 270 270 274 279 285 291 294 298 302
230 243 255 261 267 271 273 274 276 276 276 275 273 271 273 278 285 289 291 292 298 304
235 243 250 258 267 274 278 279 278 276 274 269 268 272 279 284 287 292 296 297 299 302
237 243 249 257 270 280 282 281 278 275 270 269 272 274 279 282 286 289 291 294 298 300
241 244 247 259 276 284 283 282 281 279 276 273 273 273 276 279 283 287 291 293 296 301
242 241 247 261 277 280 279 279 279 278 278 275 274 273 271 274 279 284 289 292 296 300
238 241 250 263 273 277 277 276 276 277 279 280 276 273 271 272 279 286 292 297 301 306
241 245 251 263 271 276 276 276 277 278 277 277 278 274 272 273 278 287 293 299 306 309